Wind_Speed
14 14 13 13 12 12 13 12 12 10 10 9 10 10 11 11 11 10 10 10 9 11 11 12 13 13 14 15 15 15 16 17 17 17 17 18 16 15 15 18 17 19 20
18 15 13 13 13 12 12 12 11 10 9 9 8 8 9 10 10 10 10 11 11 10 11 11 12 13 14 14 14 14 14 14 15 16 17 18 15 14 13 17 18 19 20
17 16 14 12 11 11 11 11 11 10 9 8 7 8 9 7 9 10 10 10 10 10 10 10 13 12 13 13 12 12 12 12 14 14 13 16 15 16 13 16 16 18 20
18 15 13 12 10 10 10 10 10 10 9 8 8 7 8 8 8 9 10 9 9 9 10 10 11 11 10 11 10 12 12 13 14 14 12 12 14 14 13 14 14 15 16
18 14 12 10 9 8 8 8 8 8 8 8 8 8 8 9 8 8 9 9 9 8 9 10 11 10 9 8 8 10 11 11 9 7 7 8 11 12 12 14 14 14 16
17 13 11 10 9 8 7 7 7 8 7 7 8 8 8 9 9 8 8 9 8 8 8 9 10 8 5 5 8 9 11 9 6 7 15 9 6 12 14 16 16 16 17
15 11 10 7 6 7 7 6 6 6 7 7 7 9 10 9 9 9 9 9 9 9 8 9 9 7 6 6 8 9 11 8 6 9 12 7 12 11 18 15 15 17 16
16 11 7 5 5 5 5 5 6 6 6 7 7 8 9 10 10 10 10 11 11 10 9 9 8 7 7 7 8 9 10 8 3 5 7 6 10 13 14 15 13 13 14
14 10 4 3 3 3 3 3 4 5 6 7 8 8 10 10 11 12 11 12 13 12 11 10 9 7 8 8 8 9 10 8 3 8 7 8 11 12 11 11 11 10 11
9 9 7 7 4 2 2 1 1 2 4 8 9 9 10 11 11 12 14 13 13 14 12 12 11 9 9 9 8 9 9 9 4 9 10 12 13 12 10 8 8 8 9
10 11 11 9 7 5 5 3 4 4 3 5 8 10 11 12 12 12 13 14 15 15 14 13 13 11 11 11 10 9 9 11 9 8 8 14 12 11 8 9 7 7 8
11 12 11 11 12 10 6 5 5 4 4 3 4 7 12 11 12 14 14 14 15 16 16 15 14 13 13 14 14 11 10 14 12 10 11 11 11 10 8 8 7 7 8
18 16 15 13 12 13 14 12 9 7 7 5 6 5 9 10 8 12 15 15 17 16 17 17 16 17 17 17 16 15 13 15 13 16 14 10 11 11 9 8 8 8 10
19 18 14 14 14 14 12 12 11 11 9 8 8 6 7 7 19 18 15 20 19 18 19 20 20 20 19 19 17 16 16 17 17 14 20 12 13 12 11 9 8 9 11
17 19 19 17 18 16 15 14 12 11 12 12 9 10 8 9 7 11 12 13 16 19 19 22 23 23 22 21 21 18 17 16 20 18 20 18 16 14 12 12 11 11 12
22 21 20 18 17 16 16 14 13 13 13 13 13 13 13 9 10 11 12 15 15 17 20 22 25 26 26 25 25 26 19 18 20 18 16 22 18 15 14 14 14 14 16
23 20 19 18 18 18 17 15 14 12 12 12 14 14 13 15 12 9 11 14 14 15 16 20 22 23 27 27 28 28 28 20 20 19 19 19 19 15 15 16 15 18 19
24 22 21 20 20 19 19 17 15 14 13 13 14 14 13 13 14 14 10 12 13 16 14 15 18 21 25 29 29 27 28 25 23 15 21 21 21 18 17 17 17 18 20
24 24 21 22 22 21 18 16 15 14 14 14 13 14 15 13 15 16 17 16 15 15 15 18 20 18 23 28 31 29 28 27 20 21 16 23 22 20 17 19 18 19 21
25 26 24 25 23 18 16 15 15 14 15 15 14 14 15 13 14 14 14 14 13 13 12 12 18 18 18 23 28 30 30 31 30 24 21 20 25 22 19 21 20 20 19
24 24 24 24 22 18 17 17 16 17 16 17 17 15 17 18 15 13 14 14 13 13 14 12 11 19 15 18 14 16 24 23 25 26 30 26 33 26 21 21 23 22 19
14 14 17 21 20 19 19 18 16 13 16 18 16 19 18 18 18 17 15 15 14 13 12 16 12 11 15 14 9 4 2 7 30 28 27 23 27 27 25 23 22 23 21
22 8 3 11 14 15 15 15 16 11 12 13 15 21 22 20 20 20 20 19 18 15 14 14 17 18 15 16 19 7 2 3 3 16 32 27 24 28 28 27 26 24 24
43 41 22 5 4 9 14 18 18 18 14 12 14 14 14 15 17 19 17 18 18 18 18 17 16 18 21 19 13 23 19 3 3 1 13 28 27 29 28 29 29 27 24
42 41 42 42 16 8 10 15 16 14 15 13 11 11 16 18 17 16 19 19 18 17 18 20 18 18 22 23 23 14 20 19 8 2 3 10 27 29 30 31 33 33 33
42 45 44 43 37 29 15 15 16 14 14 13 14 13 10 13 17 19 19 18 18 17 17 17 21 22 20 23 28 28 22 10 12 5 3 10 19 22 34 33 35 37 36
Wind_Direction
139 136 134 137 132 123 120 130 136 136 132 130 122 120 121 120 119 119 122 120 112 112 113 109 104 102 102 104 104 103 102 106 108 110 109 105 102 98 104 109 105 114 111
145 142 135 134 139 134 125 127 138 145 145 144 138 132 128 128 126 121 119 122 115 115 117 117 112 109 109 109 108 109 111 110 110 110 113 111 108 115 104 115 103 113 111
138 143 139 135 133 138 140 131 133 142 152 152 152 146 142 143 137 128 126 124 126 129 128 128 122 118 117 116 115 118 117 117 114 109 116 121 105 115 117 133 111 106 107
130 138 141 145 147 141 139 142 140 141 151 158 160 159 160 164 157 143 137 133 137 149 142 137 139 132 123 121 122 122 123 125 124 119 103 131 127 121 123 124 122 117 111
133 131 138 141 145 151 155 153 152 151 154 161 170 171 173 174 170 160 155 150 141 155 152 147 150 142 133 129 138 137 139 134 130 155 167 154 151 141 139 134 130 124 120
133 127 127 133 142 151 151 156 165 166 168 172 178 181 186 187 187 177 175 169 163 168 162 162 160 159 157 152 154 153 148 134 101 94 141 151 168 157 157 150 143 134 133
127 124 118 119 146 158 152 157 166 175 178 181 188 193 196 203 203 198 195 189 185 181 177 178 177 180 177 172 164 164 162 142 94 123 149 134 130 121 141 146 132 135 129
129 121 115 106 111 139 164 174 171 177 190 201 202 202 208 207 203 202 202 197 202 200 195 187 192 192 182 176 174 172 171 178 142 154 179 174 149 123 130 128 127 118 119
121 127 122 124 107 116 120 142 184 198 201 206 213 215 213 211 211 208 207 205 206 211 206 199 200 194 186 180 179 175 178 183 144 171 198 193 175 139 138 139 128 131 125
158 155 161 167 161 160 187 151 247 227 227 220 217 218 220 221 216 211 210 210 212 213 212 207 208 205 198 191 187 179 180 189 172 167 179 167 159 149 151 146 143 143 148
181 189 192 182 184 204 195 221 270 268 243 248 233 225 222 223 223 218 213 211 213 216 214 213 210 209 205 199 192 186 180 182 171 185 183 171 177 163 165 163 160 169 176
207 216 219 218 207 199 187 207 232 233 255 266 237 238 234 232 231 226 225 220 215 216 217 218 215 213 210 208 203 201 194 182 187 204 185 181 182 173 181 178 177 191 184
226 228 225 228 227 224 222 220 225 225 232 263 242 241 237 234 229 228 229 226 218 217 217 217 217 216 217 214 214 216 210 201 201 206 198 215 222 195 195 197 198 201 195
222 219 211 216 234 239 228 222 223 219 221 225 224 238 233 238 239 227 233 225 222 223 221 220 219 221 222 221 220 222 226 220 214 216 221 217 215 208 215 217 212 207 198
219 217 222 230 245 237 230 222 224 221 221 225 224 227 242 246 241 209 216 218 223 223 226 227 226 224 224 221 218 223 227 232 227 228 236 227 225 214 224 220 214 207 199
233 237 232 232 231 231 228 230 229 230 230 230 231 229 234 241 245 240 236 229 228 234 235 233 232 228 227 227 222 223 226 233 228 234 235 212 209 212 222 220 217 214 198
226 229 220 228 226 224 224 230 233 236 236 232 230 227 230 234 234 236 241 241 233 230 235 235 232 231 228 232 231 229 228 233 237 240 222 208 203 210 217 227 224 211 203
230 228 228 228 224 224 225 228 230 236 239 239 236 231 228 231 228 228 224 230 241 242 239 231 236 231 229 226 231 230 232 231 234 220 214 210 207 207 218 227 226 216 210
229 223 222 220 220 225 224 227 231 234 237 243 238 225 223 225 229 231 236 238 244 250 246 241 241 237 239 230 229 236 232 233 230 220 213 210 207 207 218 226 223 215 221
226 216 214 210 215 221 221 225 233 237 236 237 233 226 223 220 222 232 237 235 235 242 245 239 243 244 243 240 230 231 230 230 238 230 218 207 211 214 224 222 219 215 215
216 208 201 202 209 212 210 217 232 237 235 233 229 226 226 226 223 226 235 239 235 239 235 240 249 237 246 234 225 230 233 231 231 229 225 219 216 217 222 219 215 219 218
205 200 205 204 202 207 219 230 234 245 242 243 234 228 226 226 227 224 222 226 233 235 240 236 236 245 239 237 217 169 212 245 233 228 226 212 213 215 210 214 216 217 217
11 348 216 207 216 220 227 232 231 234 235 231 231 233 232 235 235 233 234 235 237 238 242 246 244 241 243 239 228 205 168 224 164 224 225 223 210 206 210 212 213 216 216
9 7 1 357 259 246 234 230 227 235 236 233 249 250 237 235 238 231 232 233 238 240 241 245 248 248 243 238 240 234 237 213 191 200 216 219 217 217 213 210 213 212 216
10 5 0 6 329 294 267 239 245 257 258 256 258 257 246 241 231 225 232 240 238 240 245 246 247 249 251 247 231 223 229 233 230 168 200 199 218 220 220 218 221 219 220
7 6 0 355 354 2 302 261 259 249 250 259 267 263 266 239 233 229 236 242 248 250 254 255 251 249 252 254 250 242 227 215 215 183 232 208 206 217 220 224 221 217 215
Height
805 805 807 809 811 811 812 813 815 816 818 819 820 821 821 822 823 824 826 827 827 829 830 830 831 832 833 835 835 836 836 836 837 838 840 841 843 844 844 844 844 844 844
803 806 808 809 810 812 813 814 816 817 819 821 821 822 823 824 824 825 827 828 829 830 831 832 833 834 835 836 837 837 838 838 839 840 841 842 844 845 845 846 846 846 846
803 806 808 810 811 812 813 815 816 817 819 821 822 824 825 825 826 826 827 829 830 831 832 833 834 836 836 837 838 839 840 841 841 842 843 844 845 845 847 848 848 848 848
804 807 808 810 812 813 814 815 816 817 819 821 822 824 825 826 827 827 828 830 831 832 833 834 835 836 837 838 839 840 841 843 844 844 845 846 846 847 848 849 850 850 851
805 807 809 811 812 813 814 815 817 818 819 820 822 824 826 827 828 828 829 830 832 833 834 835 836 837 838 839 840 841 842 843 845 846 846 847 847 848 850 851 851 852 852
806 807 809 811 812 814 815 816 817 818 819 821 822 823 825 826 828 829 830 831 832 833 834 835 836 837 838 839 840 841 843 844 845 844 845 847 847 849 850 851 852 853 855
807 808 809 811 812 813 814 815 817 818 819 820 822 823 824 825 826 829 830 831 832 833 835 836 837 837 838 839 840 842 843 845 846 846 847 848 848 848 849 851 853 854 856
806 808 810 811 812 813 814 815 816 817 818 819 821 822 823 824 825 827 829 830 831 833 834 836 837 838 838 839 841 842 843 845 846 847 848 848 850 851 853 854 855 857 857
807 808 810 811 812 813 813 814 815 816 817 818 819 821 822 823 824 825 827 829 830 832 834 835 836 837 838 840 841 842 844 845 847 847 848 849 851 852 853 855 856 858 859
806 808 809 810 811 812 813 813 814 815 816 817 818 819 820 821 822 824 825 827 829 831 833 834 835 837 838 840 841 842 844 845 847 848 848 849 850 852 854 855 856 858 860
806 807 808 809 810 810 811 812 812 813 814 815 816 817 818 819 821 822 823 825 827 829 831 832 834 835 837 839 841 842 843 845 847 848 849 850 851 852 853 855 856 858 859
805 805 806 807 808 809 809 810 810 811 812 813 814 815 816 817 818 820 822 823 825 827 829 831 832 834 836 837 839 841 842 844 845 847 848 850 851 852 853 854 855 857 858
802 804 804 805 806 807 807 808 809 810 810 812 812 813 814 816 817 818 820 821 823 825 826 828 830 832 833 835 837 839 841 843 844 845 846 848 850 852 853 854 855 855 856
799 801 802 803 804 805 805 806 806 807 808 809 811 812 812 813 814 815 816 818 820 821 823 825 828 829 831 833 835 836 839 840 842 844 845 846 848 850 851 853 854 855 856
796 798 799 800 802 803 803 804 804 805 805 807 808 809 810 811 812 813 814 816 817 819 821 823 825 827 829 831 833 834 836 837 839 841 842 844 846 848 850 851 852 853 855
793 794 797 797 798 800 801 802 803 803 803 804 805 806 808 809 810 812 813 814 816 817 819 820 822 824 826 828 830 831 833 834 835 837 839 840 843 845 847 849 850 852 853
788 790 791 793 795 797 798 800 801 801 801 801 802 803 804 805 807 809 811 812 814 815 816 817 818 821 823 824 826 828 831 832 833 834 836 838 840 842 844 846 847 849 851
784 785 788 789 791 793 796 797 798 799 800 799 799 800 801 802 804 805 808 810 811 812 813 814 815 816 818 821 822 824 826 829 830 830 833 834 836 838 841 843 844 846 848
777 779 783 786 788 791 793 795 796 796 796 797 798 798 799 800 801 803 804 806 808 809 810 811 812 813 814 816 817 819 822 824 826 827 829 831 833 835 837 839 840 842 845
772 774 776 780 785 788 791 793 794 794 793 795 795 796 796 798 799 800 802 803 804 806 807 808 809 810 811 812 814 815 816 818 821 823 825 828 830 831 833 834 836 839 841
769 772 775 778 781 785 788 790 791 790 790 791 792 793 793 795 797 798 799 801 802 802 804 806 807 808 808 810 811 811 814 815 815 818 822 822 827 825 828 831 832 835 838
772 775 777 779 781 783 786 787 788 788 788 788 788 789 790 791 794 795 797 798 800 800 801 803 804 805 805 807 807 809 811 812 811 814 817 818 820 822 824 827 829 831 834
785 783 782 782 783 783 785 786 786 786 785 785 785 785 786 787 790 792 793 795 797 798 798 799 801 802 803 803 804 806 810 806 808 808 811 814 814 819 821 823 825 828 830
801 793 790 786 785 784 784 784 784 784 784 783 784 783 783 784 785 788 790 791 792 794 795 796 797 800 800 801 801 802 802 805 803 806 806 808 812 814 816 818 821 823 826
807 802 795 788 786 785 784 783 783 783 782 782 782 781 781 781 782 784 786 787 788 789 791 792 793 795 797 798 798 798 799 801 801 802 802 804 806 808 811 812 815 817 820
810 805 801 797 791 786 783 781 780 781 780 781 779 778 777 777 778 780 782 782 783 784 785 787 789 789 791 793 793 793 794 795 796 797 802 797 797 801 804 806 809 811 815